Location: Plainartige
(45.6866°N, 1.7993°E)
Time: 16:23:14
(UTC+00:00)

ASTEX 1 - Pass Details

Date: 03 March 2021
Orbit: 720 x 743 km, 92.7° (Epoch: 11 April)

Event Time Altitude Azimuth Distance (km) Brightness Sun altitude
Rises 19:20:48 0° 11° (N) 3,148 6.7 -17.9°
Reaches altitude 10° 19:23:11 10° 17° (NNE) 2,220 5.8 -18.3°
Maximum altitude 19:27:55 46° 91° (E) 962 3.5 -19.1°
Enters shadow 19:30:12 27° 149° (SSE) 1,369 4.4 -19.5°
